Anchorage Merrill, AK

12:04 AM AKDT on August 24, 2017 (GMT -0800)
Merrill

Weather History for PAMR - September, 2012

Change the Weather History Date:

Wednesday, September 19, 2012

  Actual Average Record
Temperature  
Mean Temperature 54 °F -  
Max Temperature 62 °F 52 °F 63 °F (2010)
Min Temperature 46 °F 38 °F 28 °F (2003)
Degree Days  
Heating Degree Days 11    
Growing Degree Days 4 (Base 50)    
Moisture  
Dew Point 46 °F    
Average Humidity 88    
Maximum Humidity 97    
Minimum Humidity 58    
Precipitation  
Precipitation 0.92 in - - ()
Sea Level Pressure  
Sea Level Pressure 29.59 in    
Wind  
Wind Speed 7 mph (West)    
Max Wind Speed 15 mph    
Max Gust Speed 28 mph    
Visibility 9 miles    
Events Rain    
Averages and records for this station are not official NWS values.
T = Trace of Precipitation, MM = Missing Value Source: NWS Daily Summary

Daily Weather History Graph

Daily Weather History Graph

Search for Another Location

Airport or City:

Trip Planner

Search our weather history database for the weather conditions in past years. The results will help you decide how hot, cold, wet, or windy it might be!

Date:

Astronomy

Sep. 19, 2012 Rise Set
Actual Time 7:37 AM AKDT 8:06 PM AKDT
Civil Twilight 6:54 AM AKDT 8:49 PM AKDT
Nautical Twilight 6:01 AM AKDT 9:42 PM AKDT
Astronomical Twilight 5:01 AM AKDT 10:41 PM AKDT
Moon 1:33 PM AKDT (9/19) 8:47 PM AKDT (9/19)
Length of Visible Light 13h 55m
Length of Day
12h 29m
Waxing Crescent, 18% of the Moon is Illuminated
Sep 19
Waxing Crescent
Sep 22
First Quarter
Sep 29
Full
Oct 7
Last Quarter
Oct 15
New

Hourly Weather History & Observations

Time (AKDT) Temp. Windchill Dew Point Humidity Pressure Visibility Wind Dir Wind Speed Gust Speed Precip Events Conditions
12:53 AM 46.9 °F - 43.0 °F 86% 29.81 in 10.0 mi Variable 5.8 mph 25.3 mph 0.00 in Rain Light Rain
1:53 AM 46.9 °F - 43.0 °F 86% 29.81 in 10.0 mi Calm Calm - 0.00 in Rain Light Rain
2:53 AM 46.0 °F 41.4 °F 44.1 °F 93% 29.78 in 10.0 mi NNW 9.2 mph 16.1 mph 0.00 in Rain Light Rain
3:53 AM 46.0 °F 42.5 °F 44.1 °F 93% 29.75 in 10.0 mi NW 6.9 mph - 0.04 in Rain Light Rain
4:53 AM 46.0 °F 41.9 °F 44.1 °F 93% 29.70 in 9.0 mi WNW 8.1 mph - 0.07 in Rain Light Rain
5:53 AM 46.0 °F 43.1 °F 45.0 °F 96% 29.68 in 9.0 mi WNW 5.8 mph - 0.07 in Rain Light Rain
6:53 AM 46.9 °F - 45.0 °F 93% 29.64 in 10.0 mi SW 6.9 mph - 0.03 in Rain Light Rain
7:53 AM 46.0 °F 43.1 °F 45.0 °F 96% 29.60 in 9.0 mi West 5.8 mph - 0.03 in Rain Light Rain
8:53 AM 46.0 °F 41.4 °F 44.1 °F 93% 29.60 in 9.0 mi NW 9.2 mph 17.3 mph 0.05 in Rain Light Rain
9:53 AM 46.0 °F 41.9 °F 45.0 °F 96% 29.57 in 10.0 mi WNW 8.1 mph - 0.03 in Rain Light Rain
10:53 AM 48.9 °F - 45.0 °F 86% 29.50 in 10.0 mi South 15.0 mph 24.2 mph 0.01 in Rain Light Rain
11:53 AM 46.0 °F 43.1 °F 45.0 °F 96% 29.52 in 9.0 mi Variable 5.8 mph 27.6 mph 0.04 in Rain Light Rain
12:53 PM 46.9 °F - 45.0 °F 93% 29.50 in 8.0 mi Variable 5.8 mph - 0.04 in Rain Light Rain
1:53 PM 46.9 °F - 46.0 °F 97% 29.49 in 10.0 mi Calm Calm - 0.02 in Rain Light Rain
2:53 PM 48.9 °F - 46.9 °F 93% 29.47 in 8.0 mi NNW 12.7 mph - 0.03 in Rain Rain
3:53 PM 46.9 °F - 46.0 °F 97% 29.48 in 7.0 mi North 9.2 mph - 0.09 in Rain Rain
4:53 PM 48.0 °F - 46.9 °F 96% 29.51 in 8.0 mi NNW 6.9 mph - 0.09 in Rain Rain
5:53 PM 51.1 °F - 48.9 °F 92% 29.49 in 4.0 mi NNW 4.6 mph - 0.12 in Rain Light Rain
6:53 PM 55.9 °F - 48.9 °F 77% 29.48 in 6.0 mi SSE 6.9 mph - 0.06 in Rain Rain
7:53 PM 57.0 °F - 48.0 °F 72% 29.49 in 5.0 mi SSE 10.4 mph 19.6 mph 0.04 in Rain Light Rain
8:53 PM 57.0 °F - 48.0 °F 72% 29.52 in 10.0 mi SE 10.4 mph 18.4 mph 0.03 in Rain Light Rain
9:53 PM 57.0 °F - 48.9 °F 74% 29.54 in 10.0 mi Variable 6.9 mph - 0.02 in Rain Light Rain
10:53 PM 62.1 °F - 46.9 °F 58% 29.56 in 10.0 mi South 12.7 mph 20.7 mph 0.01 in Rain Light Rain
11:53 PM 51.1 °F - 46.9 °F 86% 29.60 in 10.0 mi SSW 8.1 mph 16.1 mph 0.00 in   Overcast